Location: ???? ???
(30.5005°N, 60.5936°E)
Time: 11:54:26
(UTC+00:00)

SAR-Lupe-1 - Pass Details

Date: 07 June 2020
Orbit: 475 x 491 km, 98.2° (Epoch: 17 June)

Event Time Altitude Azimuth Distance (km) Brightness Sun altitude
Rises 00:02:15 0° 166° (SSE) 2,514 7.5 -10.6°
Reaches altitude 10° 00:04:18 10° 166° (SSE) 1,638 6.5 -10.2°
Maximum altitude 00:07:49 88° 82° (E) 480 4.0 -9.6°
Drops below altitude 10° 00:11:21 10° 348° (NNW) 1,646 7.0 -8.9°
Sets 00:13:25 0° 349° (NNW) 2,528 8.0 -8.6°
